Flight Track Log - Related Links

Times and Time Zones

All times are in EDT time to prevent confusion due to time zone crossing. See the UAL3386 flight status page for this flight to view local times or setup timezone preferences in your user account.

Time Position Orientation Groundspeed Altitude Reporting Facility
EDT Latitude Longitude Course Direction KTS MPH feet Rate Location/Type
Thu 02:07:30 PM 29.9769 -95.3031 41° Northeast 155 178 800  Level Houston Center
Thu 02:07:54 PM 29.9836 -95.2856 66° East 161 185 1,600 1,674 Climbing Houston Center
Thu 02:08:56 PM 30.0331 -95.2528 30° Northeast 234 269 3,200 1,481 Climbing Houston Center
Thu 02:09:11 PM 30.0483 -95.2444 25° Northeast 227 261 3,500 885 Climbing Houston Center
Thu 02:09:57 PM 30.1056 -95.2175 22° Northeast 268 308 4,100 762 Climbing Houston Center
Thu 02:10:14 PM 30.1158 -95.2111 28° Northeast 245 282 4,300 2,291 Climbing Houston Center
Thu 02:10:52 PM 30.1647 -95.1764 32° Northeast 271 312 6,200 2,419 Climbing Houston Center
Thu 02:11:00 PM 30.3406 -95.0476 35° Northeast  Level FlightAware Approximate
Thu 02:11:16 PM 30.1811 -95.1656 30° Northeast 265 305 6,800  Level Houston Center
Thu 02:11:59 PM 30.2336 -95.1269 32° Northeast 274 315 8,700 2,226 Climbing Houston Center
Thu 02:12:00 PM 30.4279 -94.9722 41° Northeast  Level FlightAware Approximate
Thu 02:12:18 PM 30.2467 -95.1175 32° Northeast 271 312 9,100  Level Houston Center
Thu 02:13:01 PM 30.3086 -95.0739 31° Northeast 299 344 10,800 1,839 Climbing Houston Center
Thu 02:13:20 PM 30.3161 -95.0678 35° Northeast 286 329 11,000 1,475 Climbing Houston Center
Thu 02:14:02 PM 30.3872 -95.0183 31° Northeast 333 383 12,300 1,742 Climbing Houston Center
Thu 02:14:22 PM 30.4103 -95.0000 34° Northeast 324 373 12,800 1,952 Climbing Houston Center
Thu 02:15:25 PM 30.4922 -94.9400 32° Northeast 344 396 15,000 1,920 Climbing Houston Center
Thu 02:16:27 PM 30.5686 -94.8803 34° Northeast 336 387 16,800 1,548 Climbing Houston Center
Thu 02:17:29 PM 30.6475 -94.8197 33° Northeast 342 394 18,200 1,258 Climbing Houston Center
Thu 02:18:31 PM 30.7281 -94.7578 33° Northeast 346 398 19,400 1,210 Climbing Houston Center
Thu 02:19:33 PM 30.8336 -94.6767 33° Northeast 376 433 20,700 1,113 Climbing Houston Center
Thu 02:20:35 PM 30.9256 -94.6042 34° Northeast 399 459 21,700 1,008 Climbing Houston Center
Thu 02:21:38 PM 31.0194 -94.5308 34° Northeast 408 470 22,800 1,008 Climbing Houston Center
Thu 02:22:40 PM 31.1186 -94.4547 33° Northeast 426 490 23,800 1,113 Climbing Houston Center
Thu 02:23:42 PM 31.2383 -94.3614 34° Northeast 433 498 25,100 1,113 Climbing Houston Center
Thu 02:24:44 PM 31.3394 -94.2822 34° Northeast 437 503 26,100 1,016 Climbing Houston Center
Thu 02:25:46 PM 31.4411 -94.2014 34° Northeast 439 505 27,200 1,041 Climbing Houston Center
Thu 02:26:45 PM 31.5453 -94.1217 33° Northeast 443 510 28,200 893 Climbing Fort Worth Center
Thu 02:27:47 PM 31.6478 -94.0406 34° Northeast 445 512 29,000 387 Climbing Fort Worth Center
Thu 02:28:49 PM 31.7594 -93.9536 33° Northeast 470 541 29,000 145 Level Fort Worth Center
Thu 02:29:51 PM 31.8725 -93.8633 34° Northeast 487 560 29,300 726 Climbing Fort Worth Center
Thu 02:30:53 PM 32.0053 -93.7575 34° Northeast 490 564 30,500 823 Climbing Fort Worth Center
Thu 02:31:55 PM 32.1214 -93.6642 34° Northeast 489 563 31,000 242 Climbing Fort Worth Center
Thu 02:32:57 PM 32.2244 -93.5828 34° Northeast 492 566 31,000  Level Fort Worth Center
Thu 02:33:59 PM 32.3400 -93.4906 34° Northeast 497 572 31,000  Level Fort Worth Center
Thu 02:35:02 PM 32.4542 -93.3975 35° Northeast 499 574 31,000  Level Fort Worth Center
Thu 02:36:04 PM 32.5942 -93.2831 35° Northeast 510 587 31,000  Level Fort Worth Center
Thu 02:37:06 PM 32.7094 -93.1892 34° Northeast 509 586 31,000  Level Fort Worth Center
Thu 02:38:08 PM 32.8256 -93.0961 34° Northeast 509 586 31,000  Level Fort Worth Center
Thu 02:39:10 PM 32.9422 -93.0014 34° Northeast 509 586 31,000  Level Fort Worth Center
Thu 02:40:12 PM 33.0836 -92.8850 35° Northeast 517 595 31,000  Level Fort Worth Center
Thu 02:41:14 PM 33.1972 -92.7911 35° Northeast 504 580 31,000  Level Fort Worth Center
Thu 02:42:16 PM 33.2944 -92.6772 44° Northeast 496 571 31,000  Level Fort Worth Center
Thu 02:43:19 PM 33.3714 -92.5439 55° Northeast 491 565 31,000  Level Fort Worth Center
Thu 02:44:02 PM 33.4339 -92.4361 55° Northeast 491 565 31,000  Level Memphis Center
Thu 02:45:04 PM 33.5139 -92.2975 55° Northeast 502 578 31,000  Level Memphis Center
Thu 02:46:06 PM 33.5942 -92.1586 55° Northeast 505 581 31,000  Level Memphis Center
Thu 02:47:08 PM 33.6750 -92.0192 55° Northeast 506 582 31,000 -290 Level Memphis Center
Thu 02:48:10 PM 33.7544 -91.8786 56° Northeast 507 583 30,400 -1,355 Descending Memphis Center
Thu 02:49:12 PM 33.8486 -91.7150 55° Northeast 504 580 28,200 -1,935 Descending Memphis Center
Thu 02:50:14 PM 33.9169 -91.5933 56° Northeast 494 568 26,400 -1,790 Descending Memphis Center
Thu 02:51:16 PM 34.0008 -91.4722 50° Northeast 481 554 24,500 -1,645 Descending Memphis Center
Thu 02:52:18 PM 34.1033 -91.3325 48° Northeast 477 549 23,000 -720 Descending Memphis Center
Thu 02:53:21 PM 34.1858 -91.2178 49° Northeast 468 539 23,000 -624 Level Memphis Center
Thu 02:54:23 PM 34.2656 -91.1044 50° Northeast 455 524 21,700 -1,065 Descending Memphis Center
Thu 02:55:25 PM 34.3486 -90.9925 48° Northeast 448 516 20,800 -823 Descending Memphis Center
Thu 02:56:27 PM 34.4194 -90.8922 49° Northeast 415 478 20,000 -1,113 Descending Memphis Center
Thu 02:57:29 PM 34.5050 -90.7736 49° Northeast 399 459 18,500 -1,790 Descending Memphis Center
Thu 02:58:31 PM 34.5744 -90.6717 50° Northeast 396 456 16,300 -1,935 Descending Memphis Center
Thu 02:59:33 PM 34.6383 -90.5742 51° Northeast 379 436 14,500 -1,645 Descending Memphis Center
Thu 03:00:35 PM 34.7000 -90.4789 52° Northeast 368 423 12,900 -1,935 Descending Memphis Center
Thu 03:01:37 PM 34.7700 -90.3675 53° Northeast 362 417 10,500 -1,403 Descending Memphis Center
Thu 03:02:39 PM 34.8233 -90.2853 52° Northeast 323 372 10,000 -581 Descending Memphis Center
Thu 03:03:41 PM 34.8750 -90.2044 52° Northeast 306 352 9,300 -576 Descending Memphis Center
Thu 03:04:44 PM 34.9356 -90.1222 48° Northeast 305 351 8,800 -672 Descending Memphis Center
Thu 03:05:46 PM 35.0103 -90.1111 North 272 313 7,900 -1,403 Descending Memphis Center
Thu 03:06:48 PM 35.0797 -90.1103 North 253 291 5,900 -1,887 Descending Memphis Center
Thu 03:07:50 PM 35.1436 -90.1097 360° North 238 274 4,000 -1,790 Descending Memphis Center
Thu 03:08:52 PM 35.1800 -90.0603 48° Northeast 231 266 2,200 -960 Descending Memphis Center
Thu 03:09:55 PM 35.1681 -89.9994 103° East 202 232 2,000 -290 Descending Memphis Center
Thu 03:10:56 PM 35.1219 -89.9783 159° South 166 191 1,600 -537 Descending Memphis Center
Thu 03:11:58 PM 35.0856 -89.9767 178° South 144 166 900 -484 Descending Memphis Center
Thu 03:13:00 PM 35.0525 -89.9767 180° South 139 160 600 -290 Descending Memphis Center

Login

Don't have an account? Register now (free) for customized features, flight alerts, and more!